Home   Weather   Offenburg   Past weeks

Flag for Germany Past Weather in Offenburg, Baden-Württemberg, Germany — Yesterday and Last 2 Weeks

Now
62 °F

Clear.


Feels Like: 62 °F
Forecast: 54 / 69 °F
Wind: 2 mph from Southwest

Location: Lahr

Current Time: Aug 18, 2017 at 4:56:56 am

Latest Report: Aug 18, 2017 at 4:00 am


Visibility: 28 mi

Pressure: 30.03 "Hg

Humidity: 91%

Dew Point: 59 °F

Location of OffenburgLocation

Past Weather in Offenburg — Graph

°F

Offenburg Temperature Yesterday

Maximum temperature yesterday: 83 °F (at 7:00 pm)
Minimum temperature yesterday: 65 °F (at 6:00 am)
Average temperature yesterday: 73 °F

High & Low Weather Summary for the Past Weeks

 TemperatureHumidityPressure
High85 °F (Aug 15, 1:00 pm)99% (Aug 11, 4:00 am)30.21 "Hg (Aug 11, 4:00 am)
Low50 °F (Aug 11, 3:00 am)37% (Aug 6, 6:00 pm)29.82 "Hg (Aug 8, 10:00 am)
Average67 °F76%30.06 "Hg
* Reported Aug 3 3:00 am — Aug 18 3:00 am, Offenburg. Weather by CustomWeather, © 2017

Note: Actual official high and low records may vary slightly from our data, if they occured in-between our weather recording intervals... More about our weather records

Advertising

Offenburg Weather History for the Previous 24 Hours

Scroll right to see more
 ConditionsComfort  
Time TempWeatherWind HumidityBarometerVisibility
3:00 am
Fri, Aug 18
63 °FClear.1 mph90%30.03 "Hg31 mi
1:00 am66 °FClear.1 mph85%30.05 "Hg31 mi
12:00 am67 °FClear.1 mph81%30.04 "Hg43 mi
10:00 pm
Thu, Aug 17
69 °FClear.No wind82%30.03 "Hg28 mi
9:00 pm74 °FPassing clouds.1 mph64%30.03 "Hg43 mi
7:00 pm83 °FScattered clouds.2 mph47%30.02 "Hg40 mi
6:00 pm83 °FSunny.2 mph47%30.03 "Hg34 mi
4:00 pm83 °FSunny.3 mph52%30.03 "Hg25 mi
3:00 pm81 °FPassing clouds.3 mph59%30.04 "Hg28 mi
1:00 pm78 °FPassing clouds.5 mph62%30.06 "Hg25 mi
12:00 pm78 °FSunny.3 mph66%30.08 "Hg25 mi
10:00 am73 °FSunny.3 mph71%30.08 "Hg19 mi
9:00 am69 °FPassing clouds.1 mph81%30.09 "Hg19 mi
7:00 am65 °FPassing clouds.5 mph92%30.09 "Hg9 mi
6:00 am65 °FClear.2 mph93%30.08 "Hg10 mi
4:00 am65 °FPassing clouds.1 mph94%30.09 "Hg14 mi
Weather by CustomWeather, © 2017

See weather overviewHow to use our weather pages